Flag for Germany Weather past 2 weeks in Löhne, North Rhine-Westphalia, Germany

36 °F

Light rain. Passing clouds.

Feels Like: 27 °F
Forecast: 34 / 43 °F
Wind: 14 mph from Southwest

Location: Bueckeburg

Current Time: Nov 25, 2015 at 1:41:36 AM

Latest Report: Nov 25, 2015 at 12:20 AM

Visibility: 4 mi

Pressure: 29.71 "Hg

Humidity: 93%

Dew point: 34 °F

Location of LöhneLocation

Historic Weather in Löhne — Graph


Löhne temperature yesterday

Maximum temperature yesterday: 41 °F (at 12:20 PM)
Minimum temperature yesterday: 36 °F (at 5:45 PM)
Average temperature yesterday: 38 °F

Past Weeks' High & Low Weather Summary

High59 °F (Nov 17, 9:48 PM)100% (Nov 16, 1:20 AM)30.27 "Hg (Nov 16, 1:20 AM)
Low32 °F (Nov 22, 1:20 AM)51% (Nov 13, 4:20 PM)29.33 "Hg (Nov 21, 5:20 AM)
Average49 °F83%29.87 "Hg
* Reported Nov 9 11:20 PM — Nov 24 11:20 PM, Löhne, Weather by CustomWeather, © 2015

Note: Actual official high and low records may vary slightly from our data, if they occured in-between our weather recording intervals... More about our weather records


Löhne weather history for previous 24 hours

Time TempWeatherWind HumidityBarometerVisibility
11:20 PM
Tue, Nov 24
36 °FPassing clouds.13 mph93%29.74 "Hg4 mi
10:20 PM36 °FPassing clouds.15 mph93%29.74 "Hg4 mi
9:20 PM36 °FPassing clouds.16 mph93%29.77 "Hg4 mi
8:20 PM36 °FPassing clouds.15 mph93%29.80 "HgN/A
7:20 PM36 °FDrizzle. Mostly cloudy.15 mph93%29.83 "HgN/A
6:20 PM36 °FLight rain. Passing clouds.16 mph87%29.83 "Hg4 mi
5:57 PM36 °FRain. Fog.20 mph87%29.83 "Hg2 mi
5:45 PM36 °FRain. Overcast.20 mph87%29.83 "Hg4 mi
5:20 PM37 °FDrizzle. Mostly cloudy.17 mph81%29.86 "Hg5 mi
4:20 PM39 °FDrizzle. Mostly cloudy.21 mph65%29.86 "HgN/A
3:20 PM41 °FDrizzle. More clouds than sun.16 mph61%29.89 "HgN/A
2:20 PM41 °FCloudy.18 mph57%29.92 "HgN/A
1:20 PM41 °FBroken clouds.14 mph61%29.95 "HgN/A
12:20 PM41 °FBroken clouds.12 mph61%30.01 "HgN/A
11:20 AM39 °FBroken clouds.13 mph61%30.04 "HgN/A
10:20 AM39 °FPartly sunny.16 mph61%30.04 "HgN/A
9:20 AM39 °FPartly sunny.20 mph61%30.07 "HgN/A
8:20 AM37 °FPartly sunny.15 mph65%30.07 "HgN/A
7:20 AM37 °FPassing clouds.20 mph65%30.07 "HgN/A
6:20 AM37 °FPassing clouds.17 mph65%30.09 "HgN/A
5:20 AM37 °FPassing clouds.16 mph70%30.12 "HgN/A
4:20 AM37 °FPassing clouds.14 mph70%30.12 "HgN/A
3:20 AM37 °FPartly cloudy.10 mph75%30.15 "HgN/A
2:20 AM37 °FPartly cloudy.12 mph75%30.15 "HgN/A
1:20 AM37 °FPartly cloudy.14 mph75%30.18 "HgN/A
Weather by CustomWeather, © 2015

See weather overviewHow to use our weather pages